FW7241 Weather Reports


time (UTC)temp
C
wind
direction
speed
KPH
gust
KPH
rain 1hr
cm
rain 24hr
cm
rain mn
cm
humidity
%
barometer
mb
20260505211112 12 167 0.0 3.2 0.00 0.33 0.33 86 1009.5
20260505210111 12 124 0.0 3.2 0.00 0.33 0.33 86 1009.4
20260505205111 12 145 0.0 4.8 0.00 0.33 0.33 86 1009.5
20260505204112 13 162 0.0 1.6 0.00 0.33 0.33 86 1009.5
20260505203111 13 233 0.0 6.4 0.00 0.33 0.33 86 1009.5
20260505202111 13 218 0.0 1.6 0.00 0.33 0.33 86 1009.3
20260505200111 13 129 0.0 6.4 0.00 0.33 0.33 88 1009.2
20260505195111 13 221 0.0 1.6 0.00 0.33 0.33 88 1009.2
20260505194111 13 277 0.0 4.8 0.00 0.33 0.33 87 1009.1
20260505193111 13 240 0.0 3.2 0.00 0.33 0.33 87 1009.0
20260505192111 13 216 0.0 3.2 0.00 0.33 0.33 85 1008.9
20260505191110 13 184 0.0 3.2 0.00 0.33 0.33 84 1008.8
20260505190110 14 108 1.6 6.4 0.00 0.33 0.33 84 1008.8
20260505185110 14 160 0.0 6.4 0.03 0.33 0.33 84 1008.7
20260505184110 14 141 1.6 8.0 0.03 0.33 0.33 83 1008.5
20260505183110 15 217 0.0 6.4 0.03 0.33 0.33 84 1008.4
20260505182110 15 137 1.6 6.4 0.03 0.33 0.33 84 1008.4
20260505181110 15 129 1.6 9.7 0.03 0.33 0.33 84 1008.5
20260505180110 16 231 3.2 14.5 0.03 0.33 0.33 82 1008.5
20260505175110 16 203 3.2 9.7 0.00 0.33 0.33 79 1008.3
20260505173110 17 231 1.6 8.0 0.00 0.33 0.33 75 1008.2
20260505172110 17 265 1.6 9.7 0.00 0.33 0.33 73 1008.1
20260505171110 17 268 4.8 14.5 0.00 0.33 0.33 70 1008.1
20260505165109 18 240 3.2 9.7 0.00 0.36 0.33 67 1008.2
20260505163109 17 109 3.2 9.7 0.00 0.36 0.33 71 1008.2
20260505162109 17 153 1.6 4.8 0.00 0.36 0.33 76 1008.1
20260505161109 17 264 3.2 9.7 0.00 0.36 0.33 76 1008.1
20260505160109 17 121 3.2 8.0 0.00 0.36 0.33 77 1008.1
20260505153114 16 229 4.8 14.5 0.05 0.38 0.33 84 1008.2
20260505152113 14 193 1.6 9.7 0.28 0.38 0.33 91 1008.2
20260505151113 14 240 0.0 6.4 0.30 0.38 0.33 91 1008.2
20260505150114 13 209 1.6 9.7 0.33 0.38 0.33 90 1008.2
20260505140113 18 297 0.0 3.2 0.00 0.05 0.00 70 1007.7
20260505130112 17 62 0.0 6.4 0.00 0.05 0.00 74 1008.3
20260505124112 18 55 1.6 6.4 0.00 0.05 0.00 72 1008.4
20260505121112 16 235 1.6 4.8 0.00 0.05 0.00 77 1008.7
20260505120112 16 247 0.0 3.2 0.00 0.05 0.00 81 1008.7
20260505114111 16 223 0.0 3.2 0.00 0.05 0.00 82 1008.9
20260505113111 16 255 1.6 4.8 0.00 0.05 0.00 80 1009.0
20260505112111 16 233 1.6 3.2 0.00 0.05 0.00 80 1009.1
20260505111111 16 299 1.6 4.8 0.00 0.05 0.00 79 1009.2
20260505110111 16 208 0.0 1.6 0.00 0.05 0.00 80 1009.2
20260505102111 15 279 0.0 3.2 0.00 0.05 0.00 83 1009.4
20260505100111 15 330 0.0 1.6 0.00 0.05 0.00 83 1009.3
20260505095111 15 323 0.0 3.2 0.00 0.05 0.00 84 1009.3
20260505094110 15 40 0.0 0.0 0.00 0.05 0.00 83 1009.3
20260505093110 15 42 0.0 3.2 0.00 0.05 0.00 82 1009.2
20260505092110 15 315 0.0 3.2 0.00 0.05 0.00 84 1009.2
20260505091110 15 11 1.6 3.2 0.00 0.05 0.00 86 1009.4
20260505090110 15 46 1.6 3.2 0.00 0.05 0.00 87 1009.6
20260505083110 15 356 0.0 1.6 0.00 0.05 0.00 86 1009.7
20260505082110 15 52 0.0 1.6 0.00 0.05 0.00 85 1009.8
20260505081110 15 60 0.0 1.6 0.00 0.05 0.00 85 1009.8
20260505080109 15 30 0.0 1.6 0.00 0.05 0.00 86 1009.9
20260505075109 15 3 0.0 1.6 0.00 0.05 0.00 86 1009.9
20260505074109 15 55 0.0 1.6 0.00 0.05 0.00 86 1010.0
20260505073109 15 18 0.0 1.6 0.00 0.05 0.00 89 1010.0
20260505071109 13 250 0.0 0.0 0.00 0.05 0.00 91 1010.1
20260505070109 13 250 0.0 3.2 0.00 0.05 0.00 91 1010.2
20260505064109 12 135 0.0 1.6 0.00 0.05 0.00 93 1010.3
20260505063109 12 246 1.6 3.2 0.00 0.05 0.00 93 1010.4
20260505061108 12 146 0.0 1.6 0.00 0.05 0.00 93 1010.5
20260505060108 12 259 0.0 1.6 0.00 0.05 0.00 93 1010.5
20260505055108 12 186 0.0 0.0 0.00 0.05 0.00 93 1010.5
20260505054108 12 244 0.0 1.6 0.00 0.05 0.00 94 1010.5
20260505053108 12 157 0.0 3.2 0.00 0.05 0.00 93 1010.5
20260505052113 12 145 0.0 1.6 0.00 0.05 0.00 94 1010.4
20260505051113 12 217 0.0 1.6 0.00 0.05 0.00 94 1010.4
20260505050113 11 226 0.0 1.6 0.00 0.05 0.00 94 1010.4
20260505041112 11 124 0.0 0.0 0.00 0.05 0.00 92 1010.4
20260505040112 11 124 0.0 0.0 0.00 0.05 0.00 92 1010.4
20260505035112 11 300 0.0 0.0 0.00 0.05 0.00 92 1010.4
20260505033112 11 300 0.0 0.0 0.00 0.05 0.00 93 1010.2
20260505032112 11 300 0.0 0.0 0.00 0.05 0.00 92 1010.3
20260505031112 11 300 0.0 0.0 0.00 0.05 0.00 92 1010.4
20260505030112 11 301 1.6 4.8 0.00 0.05 0.00 92 1010.5
20260505025112 11 98 1.6 3.2 0.00 0.05 0.00 93 1010.5
20260505024111 11 139 1.6 3.2 0.00 0.05 0.00 93 1010.6
20260505023111 11 79 0.0 1.6 0.00 0.05 0.00 93 1010.8
20260505022111 11 117 0.0 1.6 0.00 0.05 0.00 93 1010.9
20260505021111 11 117 0.0 1.6 0.00 0.05 0.00 93 1011.0
20260505020111 11 117 0.0 0.0 0.00 0.05 0.00 93 1011.1
20260505015111 11 117 0.0 0.0 0.00 0.05 0.00 93 1011.0
20260505014111 11 117 0.0 1.6 0.00 0.05 0.00 93 1011.1
20260505012111 11 241 0.0 0.0 0.00 0.05 0.00 93 1011.5
20260505010110 11 241 0.0 0.0 0.00 0.05 0.00 92 1011.6
20260505005110 11 146 0.0 1.6 0.00 0.05 0.00 91 1011.7
20260505004110 12 146 0.0 0.0 0.00 0.05 0.00 91 1011.8
20260505002110 12 148 0.0 3.2 0.00 0.05 0.00 91 1011.8
20260505001110 12 140 0.0 1.6 0.00 0.05 0.00 90 1012.0
20260505000110 12 91 0.0 1.6 0.00 0.05 0.00 91 1012.1
20260504235110 12 245 0.0 0.0 0.00 0.05 0.00 91 1012.2
20260504234110 12 248 0.0 0.0 0.00 0.05 0.00 92 1012.3
20260504233110 12 259 0.0 1.6 0.00 0.05 0.00 92 1012.5
20260504232110 12 103 0.0 0.0 0.00 0.05 0.00 92 1012.4
20260504231109 12 103 0.0 0.0 0.00 0.05 0.00 92 1012.5
20260504230109 12 103 0.0 0.0 0.00 0.05 0.00 92 1012.6
20260504225109 12 103 0.0 0.0 0.00 0.05 0.00 93 1012.7
20260504224109 12 101 0.0 0.0 0.00 0.05 0.00 93 1012.6
20260504221109 12 101 0.0 1.6 0.00 0.05 0.00 92 1012.6
20260504220109 12 90 0.0 1.6 0.00 0.05 0.00 92 1012.6
20260504215109 12 77 0.0 3.2 0.00 0.05 0.05 91 1012.7
20260504213109 12 137 0.0 3.2 0.00 0.05 0.05 92 1013.1
20260504212108 13 212 0.0 1.6 0.00 0.05 0.05 92 1013.4